Location: Asarope
(8.2500°N, 4.4833°E)
Time: 14:37:46
(UTC+00:00)

Cosmos 2237 Rocket - Pass Details

Date: 07 June 2020
Orbit: 833 x 851 km, 71.0° (Epoch: 07 July)

Event Time Altitude Azimuth Distance (km) Brightness Sun altitude
Exits shadow 03:34:16 61° 278° (W) 948 2.1 -25.1°
Maximum altitude 03:34:25 61° 286° (WNW) 947 2.2 -25.0°
Drops below altitude 10° 03:39:58 10° 6° (N) 2,455 5.0 -23.8°
Sets 03:42:27 0° 10° (N) 3,392 5.9 -23.3°
